Weather History for KW43 - December, 2013

Change the Weather History Date:

Sunday, December 8, 2013

  Actual Average (KRAP) Record (KRAP)
Temperature  
Mean Temperature -4 °F 26 °F  
Max Temperature 5 °F 38 °F 62 °F (1984)
Min Temperature -13 °F 14 °F -23 °F (1972)
Degree Days  
Heating Degree Days 69 39  
Month to date heating degree days 307  
Since 1 July heating degree days 1982  
Cooling Degree Days 0 0  
Month to date cooling degree days 0  
Year to date cooling degree days 636  
Moisture  
Dew Point -8 °F    
Average Humidity 75    
Maximum Humidity 85    
Minimum Humidity 52    
Precipitation  
Precipitation 0.00 in 0.01 in 0.18 in (2007)
Month to date precipitation 0.10  
Year to date precipitation 15.97  
Snow  
Snow 0.00 in 0.10 in 3.90 in (2007)
Month to date snowfall 1.4  
Since 1 July snowfall 9.2  
Snow Depth -    
Sea Level Pressure  
Sea Level Pressure 29.88 in    
Wind  
Wind Speed 4 mph (SW)    
Max Wind Speed 12 mph    
Max Gust Speed -    
Visibility 8 miles    
Events Snow    
T = Trace of Precipitation, MM = Missing Value Source: NWS Daily Summary

Daily Weather History Graph

Daily Weather History Graph

Search for Another Location

Airport or City:

Trip Planner

Search our weather history database for the weather conditions in past years. The results will help you decide how hot, cold, wet, or windy it might be!

Date:

Astronomy

Dec. 08, 2013 Rise Set
Actual Time 7:22 AM MST 4:17 PM MST
Civil Twilight 6:49 AM MST 4:51 PM MST
Nautical Twilight 6:12 AM MST 5:27 PM MST
Astronomical Twilight 5:37 AM MST 6:03 PM MST
Moon 11:32 AM MST (12/8) 11:22 PM MST (12/8)
Length of Visible Light 10h 01m
Length of Day
8h 55m
Waxing Crescent, 40% of the Moon is Illuminated
Dec 8
Waxing Crescent
Dec 9
First Quarter
Dec 17
Full
Dec 25
Last Quarter
Jan 1
New

Hourly Weather History & Observations

Time (MST) Temp. Windchill Dew Point Humidity Pressure Visibility Wind Dir Wind Speed Gust Speed Precip Events Conditions
12:15 AM -7.6 °F - -13.0 °F 77% 29.86 in 1.8 mi North - - N/A Snow Light Snow
12:35 AM -5.8 °F - -9.4 °F 84% 29.85 in 2.5 mi North - - N/A Snow Light Snow
12:55 AM -7.6 °F - -13.0 °F 77% 29.84 in 1.8 mi Calm Calm - N/A Snow Light Snow
1:15 AM -7.6 °F - -13.0 °F 77% 29.83 in 3.0 mi North - - N/A Snow Light Snow
1:35 AM -7.6 °F - -13.0 °F 77% 29.82 in 3.0 mi Calm Calm - N/A Snow Light Snow
1:55 AM -7.6 °F - -14.8 °F 71% 29.82 in 2.5 mi North - - N/A Snow Light Snow
2:15 AM -7.6 °F - -14.8 °F 71% 29.82 in 4.0 mi Calm Calm - N/A Snow Light Snow
2:35 AM -9.4 °F - -14.8 °F 77% 29.81 in 3.0 mi North - - N/A Snow Light Snow
2:55 AM -9.4 °F - -14.8 °F 77% 29.80 in 10.0 mi North - - N/A   Overcast
3:15 AM -9.4 °F -22.7 °F -14.8 °F 77% 29.80 in 10.0 mi SSW 5.8 mph - N/A   Scattered Clouds
3:35 AM -9.4 °F - -14.8 °F 77% 29.80 in 10.0 mi Calm Calm - N/A Snow Light Snow
3:55 AM -9.4 °F - -14.8 °F 77% 29.80 in 10.0 mi North - - N/A Snow Light Snow
4:15 AM -9.4 °F - -14.8 °F 77% 29.80 in 10.0 mi Calm Calm - N/A   Clear
4:35 AM -9.4 °F - -14.8 °F 77% 29.78 in 10.0 mi North - - N/A   Clear
4:55 AM -11.2 °F -24.8 °F -16.6 °F 77% 29.79 in 10.0 mi SSW 5.8 mph - N/A   Clear
5:15 AM -9.4 °F - -14.8 °F 77% 29.80 in 10.0 mi North - - N/A   Clear
5:35 AM -9.4 °F - -14.8 °F 77% 29.80 in 10.0 mi North - - N/A   Mostly Cloudy
5:55 AM -9.4 °F - -14.8 °F 77% 29.81 in 10.0 mi North - - N/A   Overcast
6:15 AM -11.2 °F -23.0 °F -16.6 °F 77% 29.81 in 10.0 mi SW 4.6 mph - N/A   Mostly Cloudy
6:35 AM -11.2 °F - -16.6 °F 77% 29.81 in 10.0 mi North - - N/A   Clear
6:55 AM -11.2 °F - -16.6 °F 77% 29.82 in 10.0 mi North - - N/A   Scattered Clouds
7:15 AM -13.0 °F -28.6 °F -18.4 °F 77% 29.81 in 10.0 mi SSW 6.9 mph - N/A   Scattered Clouds
7:35 AM -13.0 °F -28.6 °F -18.4 °F 77% 29.80 in 10.0 mi South 6.9 mph - N/A   Mostly Cloudy
7:55 AM -13.0 °F -30.0 °F -18.4 °F 77% 29.81 in 10.0 mi SW 8.1 mph - N/A Snow Light Snow
8:15 AM -9.4 °F -25.6 °F -16.6 °F 71% 29.81 in 10.0 mi SW 8.1 mph - N/A Snow Light Snow
8:35 AM -9.4 °F -25.6 °F -14.8 °F 77% 29.82 in 10.0 mi SW 8.1 mph - N/A   Clear
8:55 AM -7.6 °F - -14.8 °F 71% 29.82 in 10.0 mi North - - N/A   Clear
9:15 AM -7.6 °F - -13.0 °F 77% 29.82 in 10.0 mi North - - N/A   Clear
9:35 AM -5.8 °F - -11.2 °F 77% 29.83 in 10.0 mi North - - N/A   Clear
9:55 AM -5.8 °F - -13.0 °F 71% 29.85 in 10.0 mi North - - N/A   Scattered Clouds
10:15 AM -4.0 °F -19.0 °F -11.2 °F 71% 29.86 in 10.0 mi SW 8.1 mph - N/A   Scattered Clouds
10:35 AM -2.2 °F - -11.2 °F 66% 29.86 in 10.0 mi North - - N/A   Clear
10:55 AM -0.4 °F - -9.4 °F 66% 29.86 in 10.0 mi North - - N/A   Clear
11:15 AM 1.4 °F - -9.4 °F 61% 29.85 in 10.0 mi North - - N/A   Clear
11:35 AM 1.4 °F - -9.4 °F 61% 29.85 in 10.0 mi North - - N/A   Clear
11:55 AM 3.2 °F - -9.4 °F 56% 29.84 in 10.0 mi North - - N/A   Clear
12:15 PM 3.2 °F - -9.4 °F 56% 29.85 in 10.0 mi North - - N/A   Clear
12:35 PM 5.0 °F - -9.4 °F 52% 29.85 in 10.0 mi North - - N/A   Clear
12:55 PM 5.0 °F - -7.6 °F 56% 29.85 in 10.0 mi North - - N/A   Clear
1:15 PM 5.0 °F -10.8 °F -7.6 °F 56% 29.86 in 10.0 mi WSW 11.5 mph - N/A   Mostly Cloudy
1:35 PM 5.0 °F - -7.6 °F 56% 29.86 in 10.0 mi North - - N/A   Mostly Cloudy
1:55 PM 5.0 °F - -5.8 °F 61% 29.86 in 10.0 mi North - - N/A   Scattered Clouds
2:15 PM 5.0 °F - -4.0 °F 66% 29.87 in 10.0 mi North - - N/A   Scattered Clouds
2:35 PM 5.0 °F - -4.0 °F 66% 29.88 in 10.0 mi North - - N/A   Mostly Cloudy
2:55 PM 5.0 °F - -2.2 °F 72% 29.88 in 10.0 mi North - - N/A   Mostly Cloudy
3:15 PM 5.0 °F -5.6 °F -2.2 °F 72% 29.89 in 10.0 mi WNW 5.8 mph - N/A   Mostly Cloudy
3:35 PM 5.0 °F - -2.2 °F 72% 29.89 in 10.0 mi North - - N/A   Mostly Cloudy
3:55 PM 5.0 °F -6.9 °F -2.2 °F 72% 29.91 in 10.0 mi WNW 6.9 mph - N/A   Mostly Cloudy
4:15 PM 5.0 °F -4.1 °F -2.2 °F 72% 29.92 in 10.0 mi NW 4.6 mph - N/A   Overcast
4:35 PM 5.0 °F - -2.2 °F 72% 29.92 in 10.0 mi North - - N/A   Overcast
4:55 PM 5.0 °F -5.6 °F -2.2 °F 72% 29.93 in 10.0 mi West 5.8 mph - N/A Snow Light Snow
5:15 PM 3.2 °F - -0.4 °F 85% 29.93 in 7.0 mi North - - N/A   Overcast
5:35 PM 5.0 °F - -0.4 °F 78% 29.94 in 5.0 mi North - - N/A   Haze
5:55 PM 5.0 °F - -0.4 °F 78% 29.94 in 7.0 mi North - - N/A   Overcast
6:15 PM 3.2 °F - -0.4 °F 85% 29.95 in 7.0 mi North - - N/A Snow Light Snow
6:35 PM 3.2 °F - -0.4 °F 85% 29.96 in 5.0 mi North - - N/A Snow Light Snow
6:55 PM 3.2 °F - -0.4 °F 85% 29.97 in 5.0 mi North - - N/A Snow Light Snow
7:15 PM 5.0 °F - -0.4 °F 78% 29.97 in 10.0 mi North - - N/A   Overcast
7:35 PM 3.2 °F - -0.4 °F 85% 29.98 in 10.0 mi North - - N/A Snow Light Snow
7:55 PM 3.2 °F -6.2 °F -2.2 °F 78% 29.98 in 10.0 mi SW 4.6 mph - N/A Snow Light Snow
8:15 PM 3.2 °F - -2.2 °F 78% 29.99 in 5.0 mi North - - N/A Snow Light Snow
8:35 PM 3.2 °F - -0.4 °F 85% 29.99 in 5.0 mi North - - N/A Snow Light Snow
8:55 PM 5.0 °F - -0.4 °F 78% 30.00 in 7.0 mi North - - N/A   Overcast
9:15 PM 3.2 °F - -2.2 °F 78% 30.00 in 3.0 mi North - - N/A Snow Light Snow
9:35 PM 3.2 °F - -0.4 °F 85% 30.00 in 3.0 mi North - - N/A Snow Light Snow
9:55 PM 3.2 °F - -0.4 °F 85% 30.00 in 1.8 mi North - - N/A Snow Light Snow
10:15 PM 5.0 °F - -0.4 °F 78% 30.00 in 1.8 mi North - - N/A Snow Light Snow
10:35 PM 3.2 °F - -0.4 °F 85% 29.99 in 7.0 mi North - - N/A   Overcast
10:55 PM 3.2 °F - -0.4 °F 85% 29.99 in 10.0 mi North - - N/A   Overcast
11:15 PM 3.2 °F - -0.4 °F 85% 29.99 in 7.0 mi North - - N/A   Overcast
11:35 PM 3.2 °F - -0.4 °F 85% 29.99 in 5.0 mi North - - N/A Snow Light Snow
11:55 PM 3.2 °F - -0.4 °F 85% 29.98 in 5.0 mi North - - N/A   Haze